Simultaneous Nadir Overpasses (SNOs) Predictions

Prediction of SNOs between GOES-16 and AQUA Satellite Orbit:

Table of predicted SNOs for the next 14.0 days since TLE Epoch: 7/10/2021
Index Date Time (GOES-16) GOES-16 Lat,Lon AQUA Lat,Lon Distance(km) Time Diff (sec)
1 07/10/2021 06:35:30 -0.07, -75.14 -0.01, -75.35 24.50 80
2 07/12/2021 06:26:00 -0.07, -75.16 -0.67, -72.41 313.50 80
3 07/12/2021 18:44:44 0.08, -75.18 -0.45, -77.59 275.34 80
4 07/14/2021 18:35:14 0.08, -75.20 0.21, -74.65 63.46 80
5 07/16/2021 18:23:03 0.08, -75.24 0.81, -71.69 402.83 80
6 07/17/2021 06:41:39 -0.09, -75.24 0.27, -76.85 183.81 80
7 07/19/2021 06:32:09 -0.09, -75.27 -0.40, -73.90 155.79 80
8 07/19/2021 18:50:53 0.10, -75.29 -0.72, -79.09 433.20 80
9 07/21/2021 06:19:58 -0.10, -75.31 -1.01, -70.95 495.43 80
10 07/21/2021 18:38:43 0.11, -75.32 -0.05, -76.15 93.43 80
11 07/23/2021 18:29:12 0.11, -75.36 0.57, -73.19 246.86 80
